Yankton, SD

12:50 PM CDT on March 23, 2017 (GMT -0500)
Gurney Municipal

Weather History for KYKN - October, 2012

Change the Weather History Date:

Monday, October 22, 2012

  Actual Average Record
Temperature  
Mean Temperature 52 °F -  
Max Temperature 60 °F 62 °F 84 °F (2003)
Min Temperature 44 °F 36 °F 20 °F (1976)
Degree Days  
Heating Degree Days 13    
Growing Degree Days 2 (Base 50)    
Moisture  
Dew Point 47 °F    
Average Humidity 82    
Maximum Humidity 93    
Minimum Humidity 63    
Precipitation  
Precipitation 0.00 in - - ()
Sea Level Pressure  
Sea Level Pressure 29.86 in    
Wind  
Wind Speed 8 mph (North)    
Max Wind Speed 14 mph    
Max Gust Speed -    
Visibility 8 miles    
Events      
Averages and records for this station are not official NWS values.
T = Trace of Precipitation, MM = Missing Value Source: NWS Daily Summary

Daily Weather History Graph

Daily Weather History Graph

Search for Another Location

Airport or City:

Trip Planner

Search our weather history database for the weather conditions in past years. The results will help you decide how hot, cold, wet, or windy it might be!

Date:

Astronomy

Oct. 22, 2012 Rise Set
Actual Time 7:52 AM CDT 6:35 PM CDT
Civil Twilight 7:23 AM CDT 7:04 PM CDT
Nautical Twilight 6:50 AM CDT 7:37 PM CDT
Astronomical Twilight 6:17 AM CDT 8:09 PM CDT
Moon 2:53 PM CDT (10/22) 12:30 AM CDT (10/22)
Length of Visible Light 11h 40m
Length of Day
10h 43m
First Quarter, 56% of the Moon is Illuminated
Oct 22
First Quarter
Oct 29
Full
Nov 6
Last Quarter
Nov 13
New
Nov 20
First Quarter

Hourly Weather History & Observations

Time (CDT) Temp. Windchill Dew Point Humidity Pressure Visibility Wind Dir Wind Speed Gust Speed Precip Events Conditions
12:15 AM 48.2 °F - 44.6 °F 87% 29.90 in 10.0 mi North 8.1 mph - N/A   Clear
12:55 AM 48.2 °F - 44.6 °F 87% 29.89 in 10.0 mi North 6.9 mph - N/A   Clear
1:35 AM 46.4 °F 42.9 °F 42.8 °F 87% 29.89 in 10.0 mi North 6.9 mph - N/A   Clear
1:55 AM 46.4 °F 42.9 °F 42.8 °F 87% 29.89 in 10.0 mi North 6.9 mph - N/A   Clear
2:15 AM 44.6 °F 40.7 °F 42.8 °F 93% 29.88 in 9.0 mi NNW 6.9 mph - N/A   Clear
2:35 AM 44.6 °F 40.2 °F 42.8 °F 93% 29.88 in 7.0 mi NNW 8.1 mph - N/A   Clear
2:55 AM 44.6 °F 40.2 °F 42.8 °F 93% 29.87 in 7.0 mi NNW 8.1 mph - N/A   Mostly Cloudy
3:15 AM 46.4 °F 42.4 °F 44.6 °F 93% 29.87 in 8.0 mi North 8.1 mph - N/A   Overcast
3:55 AM 46.4 °F 42.4 °F 44.6 °F 93% 29.86 in 8.0 mi North 8.1 mph - N/A   Clear
4:15 AM 46.4 °F 42.9 °F 44.6 °F 93% 29.87 in 8.0 mi NNW 6.9 mph - N/A   Clear
4:35 AM 46.4 °F 42.4 °F 44.6 °F 93% 29.87 in 7.0 mi NNW 8.1 mph - N/A   Clear
4:55 AM 44.6 °F 39.7 °F 42.8 °F 93% 29.88 in 5.0 mi NNW 9.2 mph - N/A   Clear
5:15 AM 44.6 °F 39.7 °F 42.8 °F 93% 29.89 in 5.0 mi NNW 9.2 mph - N/A   Clear
5:35 AM 44.6 °F 39.7 °F 42.8 °F 93% 29.89 in 5.0 mi NW 9.2 mph - N/A   Scattered Clouds
5:55 AM 44.6 °F 38.8 °F 42.8 °F 93% 29.89 in 5.0 mi NW 11.5 mph - N/A   Mostly Cloudy
6:15 AM 44.6 °F 38.1 °F 42.8 °F 93% 29.90 in 5.0 mi NNW 13.8 mph - N/A   Scattered Clouds
6:35 AM 44.6 °F 38.4 °F 42.8 °F 93% 29.90 in 5.0 mi NNW 12.7 mph - N/A   Clear
7:15 AM 46.4 °F 41.1 °F 44.6 °F 93% 29.90 in 5.0 mi NNW 11.5 mph - N/A   Partly Cloudy
7:35 AM 46.4 °F 41.9 °F 44.6 °F 93% 29.90 in 6.0 mi NNW 9.2 mph - N/A   Partly Cloudy
7:55 AM 46.4 °F 42.4 °F 44.6 °F 93% 29.91 in 7.0 mi North 8.1 mph - N/A   Scattered Clouds
8:15 AM 46.4 °F 42.9 °F 44.6 °F 93% 29.91 in 5.0 mi North 6.9 mph - N/A   Mostly Cloudy
8:35 AM 46.4 °F 42.9 °F 44.6 °F 93% 29.92 in 7.0 mi NNW 6.9 mph - N/A   Overcast
8:55 AM 46.4 °F 43.5 °F 44.6 °F 93% 29.92 in 8.0 mi NNW 5.8 mph - N/A   Overcast
9:15 AM 48.2 °F - 44.6 °F 87% 29.92 in 9.0 mi NW 9.2 mph - N/A   Overcast
9:35 AM 48.2 °F - 44.6 °F 87% 29.92 in 10.0 mi NNW 9.2 mph - N/A   Overcast
9:55 AM 48.2 °F - 44.6 °F 87% 29.92 in 10.0 mi NNW 9.2 mph - N/A   Overcast
10:15 AM 50.0 °F - 44.6 °F 82% 29.92 in 10.0 mi NNW 8.1 mph - N/A   Overcast
10:35 AM 51.8 °F - 44.6 °F 76% 29.91 in 10.0 mi North 6.9 mph - N/A   Overcast
10:55 AM 51.8 °F - 44.6 °F 76% 29.91 in 10.0 mi NW 9.2 mph - N/A   Overcast
11:15 AM 51.8 °F - 46.4 °F 82% 29.90 in 10.0 mi North 9.2 mph - N/A   Overcast
11:35 AM 53.6 °F - 46.4 °F 77% 29.91 in 10.0 mi North 5.8 mph - N/A   Overcast
11:55 AM 53.6 °F - 44.6 °F 72% 29.90 in 10.0 mi North 5.8 mph - N/A   Overcast
12:15 PM 53.6 °F - 46.4 °F 77% 29.90 in 10.0 mi NNE 9.2 mph - N/A   Overcast
12:35 PM 55.4 °F - 44.6 °F 67% 29.89 in 10.0 mi North 8.1 mph - N/A   Overcast
12:55 PM 55.4 °F - 46.4 °F 72% 29.88 in 10.0 mi NNE 8.1 mph - N/A   Overcast
1:15 PM 57.2 °F - 46.4 °F 67% 29.87 in 10.0 mi NNE 5.8 mph - N/A   Overcast
1:35 PM 57.2 °F - 46.4 °F 67% 29.86 in 10.0 mi NNW 8.1 mph - N/A   Overcast
1:55 PM 57.2 °F - 46.4 °F 67% 29.86 in 10.0 mi NNE 8.1 mph - N/A   Overcast
2:15 PM 57.2 °F - 46.4 °F 67% 29.85 in 10.0 mi North 5.8 mph - N/A   Overcast
2:35 PM 57.2 °F - 46.4 °F 67% 29.85 in 10.0 mi North 8.1 mph - N/A   Overcast
2:55 PM 59.0 °F - 46.4 °F 63% 29.84 in 10.0 mi North 8.1 mph - N/A   Overcast
3:15 PM 59.0 °F - 46.4 °F 63% 29.83 in 10.0 mi North 8.1 mph - N/A   Overcast
3:35 PM 60.8 °F - 48.2 °F 63% 29.83 in 10.0 mi NNE 8.1 mph - N/A   Overcast
3:55 PM 60.8 °F - 48.2 °F 63% 29.83 in 10.0 mi NNE 10.4 mph - N/A   Overcast
4:15 PM 60.8 °F - 48.2 °F 63% 29.83 in 10.0 mi NE 9.2 mph - N/A   Overcast
4:35 PM 59.0 °F - 48.2 °F 67% 29.83 in 10.0 mi NE 8.1 mph - N/A   Overcast
4:55 PM 59.0 °F - 48.2 °F 67% 29.83 in 10.0 mi NE 9.2 mph - N/A   Overcast
5:15 PM 59.0 °F - 48.2 °F 67% 29.82 in 10.0 mi NE 10.4 mph - N/A   Overcast
5:35 PM 57.2 °F - 48.2 °F 72% 29.81 in 10.0 mi NE 12.7 mph - N/A   Overcast
5:55 PM 57.2 °F - 48.2 °F 72% 29.82 in 10.0 mi ENE 10.4 mph - N/A   Overcast
6:15 PM 55.4 °F - 48.2 °F 77% 29.82 in 7.0 mi ENE 9.2 mph - N/A   Overcast
6:35 PM 55.4 °F - 48.2 °F 77% 29.83 in 7.0 mi NE 9.2 mph - N/A   Overcast
6:55 PM 55.4 °F - 50.0 °F 82% 29.83 in 7.0 mi NE 6.9 mph - N/A   Mostly Cloudy
7:15 PM 55.4 °F - 50.0 °F 82% 29.83 in 9.0 mi NE 4.6 mph - N/A   Mostly Cloudy
7:35 PM 55.4 °F - 50.0 °F 82% 29.83 in 8.0 mi NNE 4.6 mph - N/A   Scattered Clouds
7:55 PM 55.4 °F - 50.0 °F 82% 29.83 in 8.0 mi Calm Calm - N/A   Mostly Cloudy
8:15 PM 55.4 °F - 50.0 °F 82% 29.83 in 8.0 mi NNW 4.6 mph - N/A   Scattered Clouds
8:55 PM 55.4 °F - 51.8 °F 88% 29.80 in 7.0 mi North 5.8 mph - N/A   Overcast
9:15 PM 55.4 °F - 51.8 °F 88% 29.80 in 7.0 mi North 4.6 mph - N/A   Overcast
9:35 PM 55.4 °F - 51.8 °F 88% 29.80 in 6.0 mi North 6.9 mph - N/A   Mostly Cloudy
9:55 PM 55.4 °F - 51.8 °F 88% 29.80 in 6.0 mi North 5.8 mph - N/A   Scattered Clouds
10:15 PM 55.4 °F - 51.8 °F 88% 29.79 in 7.0 mi North 5.8 mph - N/A   Scattered Clouds
10:35 PM 55.4 °F - 51.8 °F 88% 29.78 in 7.0 mi North 5.8 mph - N/A   Scattered Clouds
10:55 PM 55.4 °F - 51.8 °F 88% 29.78 in 7.0 mi North 4.6 mph - N/A   Overcast
11:15 PM 55.4 °F - 50.0 °F 82% 29.78 in 8.0 mi NNW 6.9 mph - N/A   Mostly Cloudy
11:35 PM 55.4 °F - 51.8 °F 88% 29.78 in 8.0 mi NNW 5.8 mph - N/A   Mostly Cloudy